Current weather by "City, St" or "zip code"  
 

Current Conditions: SMITH CENTER

Clear


56.8 F

Last Updated on May 26 2024, 03:15 AM CDT
Humidity: 89%
Wind Speed: 11.4 mph
Barometer 29.57 in
Dewpoint: 53.8 F
Visibility: 10.00 mi
Precip: --
Heat Index: NA
Wind Chill: NA
Current conditions at:

SMITH CENTER (KK82)

Lat: 39.75 Lon: 98.79

active severe weather and emergency alerts image image weather storm and storm spotter reports image weather observation monitoring service image
Active
Alerts
Storm Reports Obs
Monitoring

Sign-up For Email & Text Message Weather Alert Notification Services



Advertise Here

Observation History for SMITH CENTER


Time Wind
(mph)
Vis
(mi)
Weather Precip (in) Temperature (F) Relative
Humidity
Wind
Chill
(F)
Heat
Index
(F)
Pressure
Air Dwpt altimeter
(in)
sea level
(mb)
Rmks
03:15 AM CDT 11.4 10.00 Clear -- 56.8 53.8 89% NA NA 29.57 1001.4
02:55 AM CDT E 9.2 10.00 Clear -- 57.4 53.8 88% NA NA 29.56 1001.0
01:55 AM CDT E 11.4 10.00 Partly Cloudy -- 56.7 53.6 89% NA NA 29.57 1001.4
01:35 AM CDT E 13.9 10.00 Cloudy -- 57.6 54.7 90% NA NA 29.58 1001.7
12:55 AM CDT 12.8 10.00 Cloudy 00.02 57.4 55.0 92% NA NA 29.60 1002.4
12:35 AM CDT 10.00 Cloudy 00.02 NULL % NA NA M
11:55 PM CDT 10.00 Light Rain 00.01 61.3 56.7 85% NA NA 29.61 1002.7
11:35 PM CDT 10.00 Cloudy -- 62.4 56.7 81% NA NA 29.59 1002.0
11:15 PM CDT E 15.0 10.00 Mostly Cloudy -- 61.5 56.3 83% NA NA 29.53 1000.0
10:55 PM CDT 10.00 Mostly Cloudy -- 61.0 57.0 87% NA NA 29.53 1000.0
10:35 PM CDT E 12.8 10.00 Partly Cloudy -- 60.4 57.0 88% NA NA 29.55 1000.7
09:55 PM CDT E 13.9 10.00 Partly Cloudy -- 61.5 57.7 87% NA NA 29.54 1000.3
09:35 PM CDT 13.9 10.00 Clear -- 62.6 58.3 86% NA NA 29.52 999.7
09:15 PM CDT 16.1 10.00 Partly Cloudy -- 64.2 58.6 82% NA NA 29.50 999.0
08:55 PM CDT SE 13.9 7.00 Light Rain 00.03 65.1 57.7 77% NA NA 29.51 999.3
08:35 PM CDT 10.00 Rain 00.01 64.9 56.7 75% NA NA 29.50 999.0
08:15 PM CDT E 17.2 10.00 Rain 00.01 NULL 56.8 % NA NA 29.47 998.0
07:55 PM CDT 6.9 10.00 Heavy Rain 00.01 71.2 53.6 54% NA 70.5 29.53 1000.0
06:55 PM CDT 15.0 7.00 Haze -- 77.4 55.8 47% NA 77.0 29.50 999.0
06:15 PM CDT 10.00 Clear -- NULL % NA NA M
05:55 PM CDT SE 15.0 10.00 Clear -- 81.0 53.8 39% NA 80.6 29.55 1000.7
05:35 PM CDT 15.0 10.00 Clear -- 81.7 53.2 37% NA 81.0 29.57 1001.4
04:55 PM CDT S 13.9 10.00 Clear -- 79.2 52.0 39% NA 78.6 29.60 1002.4
04:35 PM CDT S 16.1 10.00 Clear -- 79.7 50.7 36% NA 79.2 29.62 1003.1

Regional Weather Observation


HOLDREGE/BREWSTR (KHDE)

Clear
54.7 F

NORTON (KNRN)

Clear
53.6 F

KEARNEY MUNI (KEAR)

Clear
57.0 F

HASTINGS (KHSI)

Clear
57.9 F

HILL CITY (KHLC)

Clear
55.9 F

LEXINGTON (KLXN)

Clear
54.7 F

Advertise Here


Advertise Here